星链-11303 (STARLINK-11303)

导读

STARLINK-11303是美国太空探索技术公司SpaceX星链星座的一员,于2024年11月25日发射升空。星链项目旨在构建全球卫星互联网星座,为全球偏远地区等提供高速宽带服务,该卫星入轨后将加入低轨星座组网,进一步拓展星链系统的全球覆盖范围与服务能力。

基本信息
目录编号:
62096
目录名称:
STARLINK-11303
国际标识:
2024-220J
轨道中心:
EARTH
卫星名称:
星链-11303
卫星全名:
星链-11303 (STARLINK-11303)
卫星状态:
在轨 (已飞行566 天)
发射日期:
2024-11-25 UTC
国别 :
美国 (US)
星等 :
--
轨道信息
数据来源 国际轨道数据
星历时间: 2026-06-14T02:01:45+0800
17小时前
查看轨道信息
半长轴: 6734.259km
偏心率: 0.000668
轨道倾角: 42.999°
近地点辐角 261.266°
升交点赤经 183.824°
平近点角 98.745°
近地点: 351.623km
远地点: 360.621km
周期: 91.663分钟
每日圈数: 15.709708
详细信息
固有亮度:
5
最大亮度:
2.5
卫星平台:
Starlink V1.0
覆盖范围:
全球
运营商:
太空探索技术公司
运营商所在国:
美国
制造商(研发单位):
太空探索技术公司
制造商所在国:
美国
使用方式:
暂无
卫星简介
Starlink 计划是 SpaceX 推出的全球卫星互联网项目,通过发射低轨道卫星,为全球尤其是偏远地区提供高速、低延迟的互联网服务。自 2019 年起,Starlink 已部署数千颗卫星,旨在缩小全球数字鸿沟,推动互联网普及。该项目还为军事、航空等行业提供通信支持,带来广泛经济效益。
2D轨道图
3D轨道图
轨道高度分析图
轨道倾角分析图
轨道综合分析图
查看轨道综合分析图